Location: Clandonald
(53.5720°N, 110.7141°W)
Time: 15:52:06
(UTC+00:00)

X-37B - Visible Passes

Search period start: 01 October 2020 00:00
Search period end: 11 October 2020 00:00
Orbit: 386 x 387 km, 45.0° (Epoch: 18 September)

Date Brightness Start Highest point End Pass type
(mag) Time Alt. Az. Time Alt. Az. Time Alt. Az.
05 Oct 3.1 02:32:24 10° S 02:33:09 12° S 02:33:09 12° S visible
06 Oct 3.3 03:09:09 10° SW 03:09:32 12° SSW 03:09:32 12° SSW visible
07 Oct 2.7 02:11:03 10° SSW 02:13:00 15° SSE 02:13:35 15° SSE visible
08 Oct 2.8 02:48:18 10° SW 02:49:52 17° SSW 02:49:52 17° SSW visible
09 Oct 2.7 01:50:02 10° SW 01:52:12 17° S 01:53:51 12° SE visible
10 Oct 2.6 02:27:35 10° SW 02:29:46 17° S 02:30:05 17° S visible
